• In Netherlands
  • List of Countries
  • For 7 days
  • Water Temperature
  • Satellite Maps
  • Weather Map
  • Weather Widgets
  • user-avatar
    Login

    Hourly Weather Porto-Novo

    Today, 18 January, Wednesday

    Time Temperature Precipitation Wind Pressure Humidity
    00:00 +28°C° 0 mm 4 mps 756 mmHg 84%
    01:00 +28°C° 0 mm 4 mps 755 mmHg 85%
    02:00 +28°C° 0 mm 3 mps 755 mmHg 87%
    03:00 +27°C° 0 mm 3 mps 755 mmHg 89%
    04:00 +27°C° 0 mm 3 mps 755 mmHg 91%
    05:00 +27°C° 0 mm 3 mps 755 mmHg 93%
    06:00 +26°C° 0 mm 2 mps 756 mmHg 95%
    07:00 +28°C° 0 mm 3 mps 756 mmHg 85%
    08:00 +30°C° 0 mm 3 mps 757 mmHg 76%
    09:00 +33°C° 0 mm 3 mps 757 mmHg 67%
    10:00 +35°C° 0 mm 4 mps 757 mmHg 59%
    11:00 +36°C° 0 mm 4 mps 756 mmHg 51%
    12:00 +38°C° 0 mm 4 mps 756 mmHg 43%
    13:00 +38°C° 0 mm 4 mps 755 mmHg 46%
    14:00 +37°C° 0 mm 5 mps 755 mmHg 48%
    15:00 +36°C° 0 mm 5 mps 754 mmHg 50%
    16:00 +35°C° 0 mm 5 mps 754 mmHg 58%
    17:00 +33°C° 0 mm 5 mps 755 mmHg 65%
    18:00 +30°C° 0 mm 5 mps 755 mmHg 73%
    19:00 +30°C° 0 mm 5 mps 756 mmHg 76%
    20:00 +29°C° 0 mm 5 mps 756 mmHg 79%
    21:00 +29°C° 0 mm 4 mps 757 mmHg 82%
    22:00 +29°C° 0 mm 4 mps 757 mmHg 83%
    23:00 +29°C° 0 mm 4 mps 757 mmHg 85%

    Tomorrow, 19 January, Thursday

    Time Temperature Precipitation Wind Pressure Humidity
    00:00 +29°C° 0 mm 4 mps 757 mmHg 86%
    01:00 +28°C° 0 mm 4 mps 757 mmHg 87%
    02:00 +28°C° 0 mm 3 mps 756 mmHg 88%
    03:00 +28°C° 0 mm 3 mps 756 mmHg 90%
    04:00 +28°C° 0 mm 3 mps 756 mmHg 89%
    05:00 +28°C° 0 mm 3 mps 756 mmHg 88%
    06:00 +28°C° 0 mm 2 mps 756 mmHg 87%
    07:00 +29°C° 0 mm 3 mps 757 mmHg 82%
    08:00 +30°C° 0 mm 3 mps 757 mmHg 77%
    09:00 +31°C° 0 mm 3 mps 758 mmHg 71%
    10:00 +33°C° 0 mm 3 mps 758 mmHg 67%
    11:00 +34°C° 0 mm 3 mps 757 mmHg 64%
    12:00 +34°C° 0 mm 3 mps 757 mmHg 60%
    13:00 +35°C° 0 mm 3 mps 756 mmHg 57%
    14:00 +36°C° 0 mm 3 mps 755 mmHg 54%
    15:00 +36°C° 0 mm 3 mps 754 mmHg 52%
    16:00 +35°C° 0 mm 4 mps 755 mmHg 59%
    17:00 +33°C° 0 mm 4 mps 755 mmHg 66%
    18:00 +30°C° 0 mm 4 mps 755 mmHg 73%
    19:00 +30°C° 0 mm 4 mps 756 mmHg 77%
    20:00 +29°C° 0 mm 4 mps 756 mmHg 81%
    21:00 +29°C° 0 mm 4 mps 757 mmHg 85%
    22:00 +28°C° 0 mm 4 mps 757 mmHg 86%
    23:00 +28°C° 0 mm 4 mps 757 mmHg 87%

    Day after tomorrow, 20 January, Friday

    Time Temperature Precipitation Wind Pressure Humidity
    00:00 +28°C° 0 mm 4 mps 757 mmHg 89%
    01:00 +28°C° 0 mm 4 mps 756 mmHg 89%
    02:00 +28°C° 0 mm 3 mps 756 mmHg 90%
    03:00 +28°C° 0 mm 3 mps 756 mmHg 90%
    04:00 +28°C° 0 mm 3 mps 756 mmHg 89%
    05:00 +28°C° 0 mm 3 mps 756 mmHg 87%
    06:00 +29°C° 0 mm 3 mps 756 mmHg 85%
    07:00 +30°C° 0 mm 3 mps 757 mmHg 79%
    08:00 +32°C° 0 mm 4 mps 757 mmHg 73%
    09:00 +33°C° 0 mm 5 mps 758 mmHg 67%
    10:00 +33°C° 0 mm 5 mps 757 mmHg 65%
    11:00 +34°C° 0 mm 4 mps 757 mmHg 64%
    12:00 +34°C° 0 mm 4 mps 756 mmHg 62%
    13:00 +34°C° 0.1 mm 5 mps 756 mmHg 61%
    14:00 +35°C° 0.1 mm 5 mps 755 mmHg 60%
    15:00 +35°C° 0.1 mm 5 mps 754 mmHg 58%
    16:00 +34°C° 0 mm 5 mps 755 mmHg 63%
    17:00 +32°C° 0 mm 4 mps 755 mmHg 68%
    18:00 +30°C° 0 mm 4 mps 755 mmHg 73%
    19:00 +30°C° 0 mm 4 mps 756 mmHg 76%
    20:00 +29°C° 0 mm 4 mps 757 mmHg 79%
    21:00 +29°C° 0 mm 4 mps 757 mmHg 81%
    22:00 +29°C° 0 mm 4 mps 757 mmHg 82%
    23:00 +28°C° 0 mm 4 mps 757 mmHg 83%

    21 January, Saturday

    Time Temperature Precipitation Wind Pressure Humidity
    00:00 +28°C° 0 mm 4 mps 757 mmHg 84%
    01:00 +28°C° 0 mm 4 mps 756 mmHg 85%
    02:00 +28°C° 0 mm 4 mps 756 mmHg 87%
    03:00 +28°C° 0 mm 3 mps 755 mmHg 88%
    04:00 +27°C° 0 mm 3 mps 756 mmHg 88%
    05:00 +27°C° 0 mm 3 mps 756 mmHg 89%
    06:00 +27°C° 0 mm 3 mps 756 mmHg 90%
    07:00 +29°C° 0 mm 3 mps 757 mmHg 82%
    08:00 +30°C° 0 mm 4 mps 757 mmHg 73%
    09:00 +33°C° 0 mm 4 mps 758 mmHg 65%
    10:00 +34°C° 0 mm 4 mps 757 mmHg 61%
    11:00 +35°C° 0 mm 4 mps 756 mmHg 57%
    12:00 +36°C° 0 mm 4 mps 756 mmHg 53%
    13:00 +36°C° 0 mm 5 mps 755 mmHg 53%
    14:00 +36°C° 0 mm 5 mps 755 mmHg 53%
    15:00 +36°C° 0 mm 5 mps 754 mmHg 54%
    16:00 +34°C° 0 mm 5 mps 754 mmHg 60%
    17:00 +33°C° 0 mm 5 mps 755 mmHg 67%
    18:00 +30°C° 0 mm 5 mps 755 mmHg 74%
    19:00 +30°C° 0 mm 4 mps 756 mmHg 77%
    20:00 +29°C° 0 mm 4 mps 757 mmHg 80%
    21:00 +29°C° 0 mm 4 mps 757 mmHg 83%
    22:00 +29°C° 0 mm 4 mps 757 mmHg 84%
    23:00 +28°C° 0 mm 4 mps 757 mmHg 85%

    22 January, Sunday

    Time Temperature Precipitation Wind Pressure Humidity
    00:00 +28°C° 0 mm 4 mps 757 mmHg 86%
    01:00 +28°C° 0 mm 4 mps 756 mmHg 87%
    02:00 +28°C° 0 mm 4 mps 756 mmHg 88%
    03:00 +28°C° 0 mm 4 mps 756 mmHg 89%
    04:00 +28°C° 0 mm 3 mps 756 mmHg 89%
    05:00 +28°C° 0 mm 3 mps 756 mmHg 90%
    06:00 +28°C° 0 mm 3 mps 757 mmHg 90%
    07:00 +29°C° 0 mm 4 mps 757 mmHg 82%
    08:00 +32°C° 0 mm 4 mps 758 mmHg 74%
    09:00 +33°C° 0 mm 4 mps 758 mmHg 66%
    10:00 +34°C° 0.1 mm 5 mps 758 mmHg 63%
    11:00 +34°C° 0.1 mm 5 mps 757 mmHg 60%
    12:00 +35°C° 0.1 mm 5 mps 757 mmHg 58%
    13:00 +35°C° 0.2 mm 5 mps 756 mmHg 57%
    14:00 +35°C° 0.2 mm 5 mps 756 mmHg 57%
    15:00 +35°C° 0.2 mm 5 mps 755 mmHg 57%
    16:00 +34°C° 0.1 mm 5 mps 755 mmHg 63%
    17:00 +33°C° 0.1 mm 5 mps 756 mmHg 69%
    18:00 +30°C° 0.1 mm 5 mps 756 mmHg 75%
    19:00 +30°C° 0.2 mm 4 mps 757 mmHg 77%
    20:00 +29°C° 0.2 mm 4 mps 758 mmHg 80%
    21:00 +29°C° 0.2 mm 4 mps 758 mmHg 82%
    22:00 +29°C° 0 mm 4 mps 758 mmHg 83%
    23:00 +28°C° 0 mm 4 mps 758 mmHg 83%

    23 January, Monday

    Time Temperature Precipitation Wind Pressure Humidity
    00:00 +28°C° 0 mm 4 mps 757 mmHg 84%
    01:00 +28°C° 0 mm 4 mps 757 mmHg 85%
    02:00 +28°C° 0 mm 4 mps 757 mmHg 86%
    03:00 +28°C° 0 mm 3 mps 757 mmHg 87%
    04:00 +28°C° 0 mm 3 mps 757 mmHg 88%
    05:00 +28°C° 0 mm 3 mps 757 mmHg 89%
    06:00 +27°C° 0 mm 3 mps 758 mmHg 90%
    07:00 +29°C° 0 mm 3 mps 758 mmHg 81%
    08:00 +32°C° 0 mm 4 mps 758 mmHg 73%
    09:00 +33°C° 0 mm 4 mps 759 mmHg 65%
    10:00 +34°C° 0.3 mm 4 mps 758 mmHg 63%
    11:00 +34°C° 0.3 mm 4 mps 758 mmHg 60%
    12:00 +35°C° 0.3 mm 4 mps 757 mmHg 58%
    13:00 +35°C° 0.4 mm 4 mps 757 mmHg 58%
    14:00 +35°C° 0.4 mm 4 mps 756 mmHg 58%
    15:00 +35°C° 0.4 mm 4 mps 756 mmHg 58%
    16:00 +34°C° 0.1 mm 4 mps 756 mmHg 63%
    17:00 +31°C° 0.1 mm 3 mps 757 mmHg 68%
    18:00 +30°C° 0.1 mm 3 mps 757 mmHg 74%
    19:00 +30°C° 0.1 mm 3 mps 758 mmHg 77%
    20:00 +29°C° 0.1 mm 2 mps 758 mmHg 80%
    21:00 +29°C° 0.1 mm 2 mps 758 mmHg 83%
    22:00 +28°C° 0 mm 2 mps 758 mmHg 84%
    23:00 +28°C° 0 mm 2 mps 758 mmHg 85%
    Show more